Clintonville, WI

3:23 AM CST on February 07, 2016 (GMT -0600)
Clintonville Municipal

Weather History for KCLI - February, 2012

Change the Weather History Date:

Tuesday, February 14, 2012

  Actual Average Record
Temperature  
Mean Temperature 30 °F -  
Max Temperature 33 °F 27 °F 50 °F (2002)
Min Temperature 28 °F 7 °F -12 °F (1970)
Degree Days  
Heating Degree Days 34    
Moisture  
Dew Point 28 °F    
Average Humidity 91    
Maximum Humidity 100    
Minimum Humidity 75    
Precipitation  
Precipitation 0.00 in - - ()
Sea Level Pressure  
Sea Level Pressure 29.78 in    
Wind  
Wind Speed 2 mph (SW)    
Max Wind Speed 9 mph    
Max Gust Speed -    
Visibility 7 miles    
Events Snow    
Averages and records for this station are not official NWS values.
T = Trace of Precipitation, MM = Missing Value Source: NWS Daily Summary

Daily Weather History Graph

Daily Weather History Graph

Search for Another Location

Airport or City:

Trip Planner

Search our weather history database for the weather conditions in past years. The results will help you decide how hot, cold, wet, or windy it might be!

Date:

Astronomy

Feb. 14, 2012 Rise Set
Actual Time 6:57 AM CST 5:21 PM CST
Civil Twilight 6:27 AM CST 5:51 PM CST
Nautical Twilight 5:53 AM CST 6:25 PM CST
Astronomical Twilight 5:19 AM CST 6:59 PM CST
Moon 12:47 AM CST (2/14) 10:20 AM CST (2/14)
Length of Visible Light 11h 24m
Length of Day
10h 24m
Waning Gibbous, 50% of the Moon is Illuminated
Feb 14
Waning Gibbous
Feb 21
New
Feb 29
First Quarter
Mar 8
Full
Mar 14
Last Quarter

Hourly Weather History & Observations

Time (CST) Temp. Windchill Dew Point Humidity Pressure Visibility Wind Dir Wind Speed Gust Speed Precip Events Conditions
12:15 AM 28.4 °F - 28.4 °F 100% 29.77 in 5.0 mi Calm Calm - N/A Snow Light Snow
12:35 AM 28.4 °F - 28.4 °F 100% 29.77 in 5.0 mi Calm Calm - N/A Snow Light Snow
12:55 AM 28.4 °F - 28.4 °F 100% 29.76 in 5.0 mi Calm Calm - N/A Snow Light Snow
1:15 AM 28.4 °F 24.6 °F 28.4 °F 100% 29.76 in 7.0 mi SSW 3.5 mph - N/A Snow Light Snow
1:35 AM 28.4 °F 24.6 °F 28.4 °F 100% 29.76 in 7.0 mi South 3.5 mph - N/A   Overcast
1:55 AM 28.4 °F 24.6 °F 28.4 °F 100% 29.76 in 7.0 mi South 3.5 mph - N/A Snow Light Snow
2:15 AM 28.4 °F - 28.4 °F 100% 29.76 in 7.0 mi Calm Calm - N/A   Overcast
2:35 AM 28.4 °F 24.6 °F 28.4 °F 100% 29.75 in 7.0 mi SSW 3.5 mph - N/A   Overcast
2:55 AM 28.4 °F - 28.4 °F 100% 29.74 in 7.0 mi Calm Calm - N/A   Overcast
3:15 AM 28.4 °F - 28.4 °F 100% 29.74 in 7.0 mi Calm Calm - N/A   Overcast
3:35 AM 28.4 °F - 28.4 °F 100% 29.74 in 7.0 mi Calm Calm - N/A   Overcast
3:55 AM 28.4 °F - 28.4 °F 100% 29.74 in 5.0 mi Calm Calm - N/A   Overcast
4:15 AM 28.4 °F - 28.4 °F 100% 29.74 in 5.0 mi Calm Calm - N/A   Overcast
4:35 AM 28.4 °F - 28.4 °F 100% 29.74 in 5.0 mi Calm Calm - N/A   Overcast
4:55 AM 28.4 °F - 28.4 °F 100% 29.74 in 5.0 mi Calm Calm - N/A   Overcast
5:15 AM 28.4 °F - 28.4 °F 100% 29.74 in 5.0 mi Calm Calm - N/A   Overcast
5:35 AM 28.4 °F - 28.4 °F 100% 29.74 in 5.0 mi Calm Calm - N/A   Overcast
5:55 AM 28.4 °F - 28.4 °F 100% 29.74 in 4.0 mi Calm Calm - N/A   Overcast
6:15 AM 28.4 °F - 28.4 °F 100% 29.75 in 4.0 mi Calm Calm - N/A   Overcast
6:35 AM 28.4 °F - 28.4 °F 100% 29.76 in 4.0 mi Calm Calm - N/A Snow Light Snow
6:55 AM 28.4 °F - 26.6 °F 93% 29.76 in 4.0 mi Calm Calm - N/A   Overcast
7:15 AM 28.4 °F 24.6 °F 28.4 °F 100% 29.76 in 3.0 mi SSW 3.5 mph - N/A   Overcast
7:35 AM 28.4 °F - 28.4 °F 100% 29.76 in 3.0 mi Calm Calm - N/A   Overcast
7:55 AM 28.4 °F - 28.4 °F 100% 29.77 in 2.5 mi Calm Calm - N/A Snow Light Snow
8:15 AM 28.4 °F - 28.4 °F 100% 29.77 in 2.5 mi Calm Calm - N/A Snow Light Snow
8:35 AM 28.4 °F - 28.4 °F 100% 29.77 in 2.0 mi Calm Calm - N/A Snow Light Snow
8:55 AM 30.2 °F - 28.4 °F 93% 29.77 in 2.0 mi Calm Calm - N/A Snow Light Snow
9:15 AM 30.2 °F 26.7 °F 28.4 °F 93% 29.78 in 3.0 mi WSW 3.5 mph - N/A Snow Light Snow
9:35 AM 30.2 °F 25.4 °F 28.4 °F 93% 29.78 in 2.5 mi WSW 4.6 mph - N/A Snow Light Snow
9:55 AM 30.2 °F 25.4 °F 28.4 °F 93% 29.78 in 3.0 mi WSW 4.6 mph - N/A Snow Light Snow
10:15 AM 32.0 °F 27.5 °F 28.4 °F 87% 29.78 in 3.0 mi West 4.6 mph - N/A Snow Light Snow
10:35 AM 32.0 °F 26.4 °F 28.4 °F 87% 29.78 in 5.0 mi WNW 5.8 mph - N/A Snow Light Snow
10:55 AM 32.0 °F 27.5 °F 28.4 °F 87% 29.78 in 10.0 mi West 4.6 mph - N/A   Overcast
11:15 AM 32.0 °F 28.7 °F 26.6 °F 80% 29.78 in 10.0 mi West 3.5 mph - N/A   Overcast
11:35 AM 32.0 °F 28.7 °F 28.4 °F 87% 29.78 in 10.0 mi West 3.5 mph - N/A   Overcast
11:55 AM 32.0 °F 27.5 °F 28.4 °F 87% 29.78 in 10.0 mi WSW 4.6 mph - N/A   Overcast
12:15 PM 32.0 °F 25.6 °F 28.4 °F 87% 29.78 in 10.0 mi WSW 6.9 mph - N/A   Overcast
12:35 PM 32.0 °F 24.8 °F 26.6 °F 80% 29.77 in 10.0 mi WSW 8.1 mph - N/A   Overcast
12:55 PM 33.8 °F 26.4 °F 26.6 °F 75% 29.76 in 10.0 mi WSW 9.2 mph - N/A   Overcast
1:15 PM 33.8 °F 27.0 °F 26.6 °F 75% 29.76 in 10.0 mi WSW 8.1 mph - N/A   Overcast
1:35 PM 33.8 °F 27.7 °F 28.4 °F 81% 29.76 in 10.0 mi SW 6.9 mph - N/A   Overcast
1:55 PM 33.8 °F 27.0 °F 28.4 °F 81% 29.76 in 10.0 mi SSW 8.1 mph - N/A   Overcast
2:15 PM 33.8 °F 27.7 °F 28.4 °F 81% 29.77 in 10.0 mi SW 6.9 mph - N/A   Overcast
2:35 PM 33.8 °F 27.7 °F 28.4 °F 81% 29.77 in 10.0 mi WSW 6.9 mph - N/A   Overcast
2:55 PM 33.8 °F 27.7 °F 28.4 °F 81% 29.78 in 10.0 mi SW 6.9 mph - N/A   Overcast
3:15 PM 33.8 °F 27.7 °F 28.4 °F 81% 29.78 in 10.0 mi WSW 6.9 mph - N/A   Overcast
3:35 PM 33.8 °F 27.0 °F 28.4 °F 81% 29.78 in 10.0 mi WSW 8.1 mph - N/A   Overcast
3:55 PM 33.8 °F 28.6 °F 26.6 °F 75% 29.79 in 10.0 mi WSW 5.8 mph - N/A   Overcast
4:15 PM 33.8 °F 28.6 °F 28.4 °F 81% 29.79 in 10.0 mi WSW 5.8 mph - N/A   Overcast
4:35 PM 33.8 °F 29.6 °F 28.4 °F 81% 29.80 in 10.0 mi WSW 4.6 mph - N/A   Overcast
4:55 PM 33.8 °F 29.6 °F 28.4 °F 81% 29.80 in 10.0 mi SW 4.6 mph - N/A   Overcast
5:15 PM 32.0 °F 27.5 °F 28.4 °F 87% 29.81 in 10.0 mi SW 4.6 mph - N/A   Overcast
5:35 PM 32.0 °F 28.7 °F 28.4 °F 87% 29.81 in 10.0 mi SW 3.5 mph - N/A   Overcast
6:15 PM 32.0 °F 28.7 °F 28.4 °F 87% 29.83 in 10.0 mi SSW 3.5 mph - N/A   Overcast
6:35 PM 32.0 °F 27.5 °F 28.4 °F 87% 29.83 in 10.0 mi South 4.6 mph - N/A   Overcast
6:55 PM 32.0 °F 28.7 °F 28.4 °F 87% 29.84 in 10.0 mi SSW 3.5 mph - N/A   Overcast
7:35 PM 32.0 °F 27.5 °F 28.4 °F 87% 29.85 in 10.0 mi SSW 4.6 mph - N/A   Overcast
7:55 PM 32.0 °F 25.6 °F 28.4 °F 87% 29.85 in 10.0 mi SW 6.9 mph - N/A   Overcast
8:15 PM 32.0 °F 27.5 °F 28.4 °F 87% 29.85 in 10.0 mi SSW 4.6 mph - N/A   Overcast
8:35 PM 32.0 °F 27.5 °F 28.4 °F 87% 29.86 in 10.0 mi SSW 4.6 mph - N/A   Overcast
8:55 PM 32.0 °F 28.7 °F 28.4 °F 87% 29.86 in 10.0 mi South 3.5 mph - N/A   Overcast
9:35 PM 32.0 °F 28.7 °F 28.4 °F 87% 29.87 in 10.0 mi South 3.5 mph - N/A   Overcast
9:55 PM 32.0 °F 28.7 °F 28.4 °F 87% 29.87 in 10.0 mi South 3.5 mph - N/A   Overcast
10:15 PM 32.0 °F 27.5 °F 28.4 °F 87% 29.88 in 10.0 mi South 4.6 mph - N/A   Overcast
10:35 PM 32.0 °F 27.5 °F 28.4 °F 87% 29.88 in 10.0 mi SSW 4.6 mph - N/A   Overcast
10:55 PM 32.0 °F 27.5 °F 28.4 °F 87% 29.88 in 10.0 mi SSW 4.6 mph - N/A   Overcast
11:15 PM 32.0 °F 27.5 °F 28.4 °F 87% 29.89 in 10.0 mi SSW 4.6 mph - N/A   Overcast
11:35 PM 32.0 °F 25.6 °F 28.4 °F 87% 29.89 in 10.0 mi SSW 6.9 mph - N/A   Overcast
11:55 PM 32.0 °F 26.4 °F 28.4 °F 87% 29.89 in 10.0 mi SSW 5.8 mph - N/A   Overcast